Tracking 20715 objects as of 27-May-2020
HD Live streaming from Space Station
objects crossing your sky now

IRIDIUM 33 DEB

Track IRIDIUM 33 DEB now!
10-day predictions


NORAD ID: 35079
Int'l Code: 1997-051PE
Perigee: 738.5 km
Apogee: 930.4 km
Inclination: 86.4 °
Period: 101.4 minutes
Semi major axis: 7205 km
RCS: 0.0003 m2 (small)
Launch date: September 14, 1997
Source: United States (US)
Launch site: TYURATAM MISSILE AND SPACE COMPLEX (TTMTR)

Note: This is SATELLITE DEBRIS
aabbcc
Your satellite tracking list
Your tracking list is empty




NASA's NSSDC Master Catalog

Two Line Element Set (TLE):
1 35079U 97051PE  20136.64087513 +.00001913 +00000-0 +82450-3 0  9998
2 35079 086.4320 287.2449 0133159 187.7651 244.1504 14.19432205571578
Source of the keplerian elements: AFSPC